TimeCDT,TemperatureF,Dew PointF,Humidity,Sea Level PressureIn,VisibilityMPH,Wind Direction,Wind SpeedMPH,Gust SpeedMPH,PrecipitationIn,Events,Conditions,WindDirDegrees,DateUTC
12:52 AM,33.1,28.9,85,30.46,10.0,Calm,Calm,-,N/A,,Clear,0,2013-10-25 05:52:00
1:52 AM,32.0,28.9,88,30.47,10.0,Calm,Calm,-,N/A,,Clear,0,2013-10-25 06:52:00
2:52 AM,32.0,28.9,88,30.47,10.0,Calm,Calm,-,N/A,,Clear,0,2013-10-25 07:52:00
3:52 AM,32.0,28.0,85,30.48,10.0,Calm,Calm,-,N/A,,Clear,0,2013-10-25 08:52:00
4:52 AM,30.9,27.0,85,30.48,10.0,Calm,Calm,-,N/A,,Clear,0,2013-10-25 09:52:00
5:52 AM,28.9,26.1,89,30.49,10.0,SE,3.5,-,N/A,,Clear,130,2013-10-25 10:52:00
6:52 AM,33.1,27.0,78,30.48,10.0,SE,4.6,-,N/A,,Clear,130,2013-10-25 11:52:00
7:52 AM,32.0,27.0,82,30.49,10.0,SE,4.6,-,N/A,,Clear,140,2013-10-25 12:52:00
8:52 AM,37.0,30.9,79,30.50,10.0,South,4.6,-,N/A,,Partly Cloudy,170,2013-10-25 13:52:00
9:52 AM,43.0,30.9,62,30.51,10.0,SSE,6.9,-,0.00,,Scattered Clouds,150,2013-10-25 14:52:00
10:52 AM,46.0,30.0,54,30.49,10.0,SSE,11.5,-,N/A,,Overcast,150,2013-10-25 15:52:00
11:52 AM,51.1,28.0,41,30.47,10.0,SSE,12.7,-,N/A,,Partly Cloudy,150,2013-10-25 16:52:00
12:52 PM,53.1,26.1,35,30.44,10.0,SSE,11.5,-,N/A,,Clear,150,2013-10-25 17:52:00
1:52 PM,55.0,26.1,33,30.40,10.0,SSE,12.7,17.3,N/A,,Clear,160,2013-10-25 18:52:00
2:52 PM,57.0,26.1,30,30.35,10.0,South,12.7,-,N/A,,Clear,170,2013-10-25 19:52:00
3:52 PM,57.0,27.0,32,30.31,10.0,South,11.5,17.3,N/A,,Clear,190,2013-10-25 20:52:00
4:52 PM,57.0,28.9,34,30.30,10.0,South,9.2,21.9,N/A,,Clear,180,2013-10-25 21:52:00
5:52 PM,55.0,28.0,35,30.27,10.0,South,11.5,-,N/A,,Clear,170,2013-10-25 22:52:00
6:52 PM,48.0,32.0,54,30.26,10.0,South,5.8,-,N/A,,Clear,170,2013-10-25 23:52:00
7:52 PM,45.0,33.1,63,30.25,10.0,SSE,5.8,-,N/A,,Clear,160,2013-10-26 00:52:00
8:52 PM,44.1,34.0,68,30.24,10.0,SSE,6.9,-,N/A,,Clear,160,2013-10-26 01:52:00
9:52 PM,46.0,35.1,66,30.22,10.0,South,8.1,-,N/A,,Clear,180,2013-10-26 02:52:00
10:52 PM,46.9,34.0,61,30.21,10.0,SSW,9.2,-,N/A,,Clear,200,2013-10-26 03:52:00
11:52 PM,45.0,35.1,68,30.20,10.0,South,8.1,-,N/A,,Clear,190,2013-10-26 04:52:00